Regional Weather Roundup
Issued by NWS

Home | Current Version | Previous Version | Text Only | Print | Product List | Glossary On
Versions: 1 2 3 4 5 6 7 8 9 10 11 12 13 14 15 16 17 18 19 20 21 22 23 24 25 26 27 28 29 30 31 32 33 34 35 36 37 38 39 40 41 42 43 44 45 46 47 48 49 50
000
ASUS43 KLSX 280407
RWRMO

WEATHER SUMMARY FOR MISSOURI
NATIONAL WEATHER SERVICE SPRINGFIELD MO
1000 PM CST FRI FEB 27 2015

NOTE: "FAIR" INDICATES FEW OR NO CLOUDS BELOW 12,000 FEET WITH NO
       SIGNIFICANT WEATHER AND/OR OBSTRUCTIONS TO VISIBILITY.
       CURRENT SKY AND/OR WEATHER CONDITIONS ARE NOT AVAILABLE FOR
       CHILLICOTHE AND FARMINGTON.

MOZ001>031-035>038-043-044-053-054-280500-
...NORTHERN AND WESTERN MISSOURI...

CITY           SKY/WX    TMP DP  RH WIND       PRES   REMARKS
KANSAS CTY INT PTCLDY    15   4  61 E8        30.55R WCI   4
KANSAS C DTWN  CLOUDY    18   5  57 E7        30.58R WCI   9
LEE`S SUMMIT   MOCLDY    17   3  54 E8        30.56S WCI   7
ST JOSEPH      CLEAR     17   3  54 SE7       30.58R WCI   8
CHILLICOTHE      N/A     13   5  70 CALM      30.61S
KIRKSVILLE     MOCLDY     9   1  70 E6        30.61S WCI  -1

$$
MOZ066>068-077>081-088>096-101>105-280500-
...SOUTHWEST MISSOURI...

CITY           SKY/WX    TMP DP  RH WIND       PRES   REMARKS
SPRINGFIELD    CLOUDY    19  12  74 S6        30.52R WCI  11
JOPLIN         CLOUDY    19  13  77 E5        30.54R WCI  12

$$
MOZ032>034-039>042-045>050-055>058-069>072-280500-
...CENTRAL MISSOURI...

CITY           SKY/WX    TMP DP  RH WIND       PRES   REMARKS
COLUMBIA       CLOUDY    15   2  56 E8        30.58F WCI   4
JEFFERSON CITY CLOUDY    17   2  51 E7        30.61S WCI   8
ROLLA          CLOUDY    19   2  47 NE8       30.53S WCI   9
SEDALIA        CLOUDY    20   5  52 NE6       30.59S WCI  12
WHITEMAN AFB   CLOUDY    19   6  57 E6        30.57R WCI  10
WARRENSBURG    CLOUDY    19   5  53 NE5       30.59S WCI  13
OSAGE BEACH    CLOUDY    19   3  49 NE3       30.56S

$$
MOZ051-052-059>065-280500-
...EAST CENTRAL MISSOURI...

CITY           SKY/WX    TMP DP  RH WIND       PRES   REMARKS
ST LOUIS INTL  MOCLDY    15   1  53 E8        30.65F WCI   4
SPIRIT OF STL  CLOUDY    16   2  54 E8        30.64F WCI   5
ST CHARLES     MOCLDY    12   3  67 E6        30.67S WCI   3

$$
MOZ072>076-082>087-097>100-106>115-280500-
...SOUTH CENTRAL AND SOUTHEAST MISSOURI...

CITY           SKY/WX    TMP DP  RH WIND       PRES   REMARKS
CAPE GIRARDEAU PTCLDY    21  11  65 E8        30.62F WCI  11
FARMINGTON     PTCLDY    18   9  68 E7        30.60S WCI   8
POPLAR BLUFF   PTCLDY    22   9  57 NE7       30.59F WCI  13
WEST PLAINS    CLOUDY    20   6  55 E6        30.53R WCI  12

$$


USA.gov is the U.S. government's official web portal to all federal, state and local government web resources and services.